Weather History for PHKO - October, 2012

Change the Weather History Date:

Wednesday, October 3, 2012

  Actual Average Record
Temperature  
Mean Temperature 78 °F -  
Max Temperature 84 °F 84 °F 93 °F (1982)
Min Temperature 73 °F 73 °F 70 °F (2010)
Cooling Degree Days 14    
Growing Degree Days 28 (Base 50)    
Moisture  
Dew Point 68 °F    
Average Humidity 68    
Maximum Humidity 79    
Minimum Humidity 58    
Precipitation  
Precipitation 0.00 in - - ()
Sea Level Pressure  
Sea Level Pressure 29.97 in    
Wind  
Wind Speed 7 mph (SW)    
Max Wind Speed 15 mph    
Max Gust Speed -    
Visibility 10 miles    
Events      
Averages and records for this station are not official NWS values.
T = Trace of Precipitation, MM = Missing Value Source: NWS Daily Summary

Daily Weather History Graph

Daily Weather History Graph

Search for Another Location

Airport or City:

Trip Planner

Search our weather history database for the weather conditions in past years. The results will help you decide how hot, cold, wet, or windy it might be!

Date:

Astronomy

Oct. 03, 2012 Rise Set
Actual Time 6:15 AM HST 6:09 PM HST
Civil Twilight 5:53 AM HST 6:31 PM HST
Nautical Twilight 5:28 AM HST 6:57 PM HST
Astronomical Twilight 5:02 AM HST 7:22 PM HST
Moon 8:43 PM HST (10/3) 9:17 AM HST (10/3)
Length of Visible Light 12h 38m
Length of Day
11h 54m
Waning Gibbous, 87% of the Moon is Illuminated
Oct 3
Waning Gibbous
Oct 7
Last Quarter
Oct 15
New
Oct 21
First Quarter
Oct 29
Full

Hourly Weather History & Observations

Time (HST) Temp. Heat Index Dew Point Humidity Pressure Visibility Wind Dir Wind Speed Gust Speed Precip Events Conditions
12:53 AM 78.1 °F - 66.9 °F 68% 29.96 in 10.0 mi East 6.9 mph - N/A   Partly Cloudy
1:53 AM 78.1 °F - 68.0 °F 71% 29.96 in 10.0 mi SE 3.5 mph - N/A   Clear
2:53 AM 77.0 °F - 68.0 °F 74% 29.95 in 10.0 mi Calm Calm - N/A   Partly Cloudy
3:53 AM 75.9 °F - 68.0 °F 76% 29.94 in 10.0 mi ENE 3.5 mph - N/A   Clear
4:53 AM 75.0 °F - 66.9 °F 76% 29.95 in 10.0 mi Calm Calm - N/A   Clear
5:53 AM 73.9 °F - 66.9 °F 79% 29.95 in 10.0 mi North 6.9 mph - N/A   Clear
6:53 AM 75.9 °F - 64.0 °F 67% 29.96 in 10.0 mi NNE 10.4 mph - N/A   Clear
7:53 AM 81.0 °F 82.7 °F 64.9 °F 58% 29.98 in 10.0 mi North 12.7 mph - N/A   Clear
8:53 AM 81.0 °F 83.8 °F 68.0 °F 65% 29.99 in 10.0 mi NW 12.7 mph - N/A   Partly Cloudy
9:53 AM 82.0 °F 84.9 °F 68.0 °F 62% 29.99 in 10.0 mi WNW 9.2 mph - N/A   Clear
10:53 AM 82.9 °F 87.0 °F 70.0 °F 65% 29.99 in 10.0 mi WNW 12.7 mph - N/A   Partly Cloudy
11:53 AM 84.0 °F 87.0 °F 68.0 °F 58% 29.97 in 10.0 mi WNW 12.7 mph - N/A   Clear
12:53 PM 84.0 °F 87.8 °F 69.1 °F 61% 29.94 in 10.0 mi WNW 8.1 mph - N/A   Clear
1:53 PM 84.0 °F 87.8 °F 69.1 °F 61% 29.92 in 10.0 mi West 8.1 mph - N/A   Clear
2:53 PM 82.9 °F 85.8 °F 68.0 °F 60% 29.92 in 10.0 mi WSW 8.1 mph - N/A   Clear
3:53 PM 82.0 °F 85.5 °F 69.1 °F 65% 29.92 in 10.0 mi WSW 8.1 mph - N/A   Clear
4:53 PM 82.9 °F 86.5 °F 69.1 °F 63% 29.94 in 10.0 mi SW 6.9 mph - N/A   Clear
5:53 PM 82.0 °F 84.5 °F 66.9 °F 60% 29.95 in 10.0 mi South 12.7 mph - N/A   Clear
6:53 PM 80.1 °F 83.2 °F 70.0 °F 71% 29.96 in 10.0 mi SSE 13.8 mph - N/A   Clear
7:53 PM 79.0 °F - 69.1 °F 72% 29.99 in 10.0 mi SSE 15.0 mph - N/A   Clear
8:53 PM 79.0 °F - 69.1 °F 72% 30.01 in 10.0 mi SE 9.2 mph - N/A   Clear
9:53 PM 78.1 °F - 70.0 °F 76% 30.01 in 10.0 mi SE 10.4 mph - N/A   Scattered Clouds
10:53 PM 78.1 °F - 70.0 °F 76% 30.01 in 10.0 mi SE 4.6 mph - N/A   Overcast
11:53 PM - - - N/A% 30.01 in 10.0 mi Calm Calm - N/A   Mostly Cloudy